Location: Ernsee
(50.8780°N, 12.0389°E)
Time: 11:09:22
(UTC+00:00)

NOSS 2-2 (D) - Pass Details

Date: 20 January 2020
Orbit: 485 x 1724 km, 63.3° (Epoch: 03 February)

Event Time Altitude Azimuth Distance (km) Brightness Sun altitude
Exits shadow 05:11:28 25° 229° (SW) 1,054 4.4 -17.3°
Maximum altitude 05:13:33 82° 313° (NW) 543 3.1 -17.0°
Drops below altitude 10° 05:17:52 10° 43° (NE) 1,985 6.6 -16.3°
Sets 05:20:25 0° 45° (NE) 3,051 7.6 -15.9°
